Regional Weather Roundup
Issued by NWS Wakefield, VA

Home | Current Version | Previous Version | Graphics & Text | Print | Product List | Glossary On
Versions: 1 2 3 4 5 6 7 8 9 10 11 12 13 14 15 16 17 18 19 20 21 22 23 24 25 26 27 28 29 30 31 32 33 34 35 36 37 38 39 40 41 42 43 44 45 46 47 48 49 50
000
ASUS41 KAKQ 291014
RWRAKQ

REGIONAL WEATHER ROUNDUP
NATIONAL WEATHER SERVICE WAKEFIELD VA
600 AM EDT SUN MAR 29 2015

Note: "fair" indicates few or no clouds below 12,000 feet with no
significant weather and/or obstructions to visibility. * = Denotes
station may not report precipitation (e.g., rain,snow,etc.),
thunder or fog.

VAZ042-051-052>054-056-291100-
NORTHERN VIRGINIA

CITY           SKY/WX    TMP DP  RH WIND       PRES   REMARKS
WASH NATIONAL  CLEAR     28   7  41 NW9G17    30.34R
DULLES         FAIR      22   7  52 NW6       30.32R
FORT BELVOIR   CLEAR     26   6  44 NW9       30.34R
QUANTICO       CLEAR     27   5  39 N6        30.36R
FREDERICKSBRG* CLEAR     27   8  43 NW7       30.35R
STAFFORD*      CLEAR     22   5  47 NW5       30.39R
WARRENTON      CLEAR     24  13  64 NW3       30.32S
CULPEPER*      CLEAR     27   7  43 N3        30.33S
MANASSAS*      CLEAR     23  10  58 NW7       30.34R
LEESBURG*      CLEAR     25  10  54 NW6       30.33R
WINCHESTER     CLEAR     25   1  36 W5        30.32R
FRONT ROYAL*   FAIR      21   9  58 CALM      30.31R
LURAY*         FAIR      21  12  68 CALM      30.31R
$$

VAZ048-049-060>072-079>083-291100-
CENTRAL AND SOUTH CENTRAL VIRGINIA

CITY           SKY/WX    TMP DP  RH WIND       PRES   REMARKS
RICHMOND       CLEAR     27   7  42 N12       30.34R WCI  17
CHESTERFIELD*  NOT AVBL
PETERSBURG*    CLEAR     28  11  50 N6        30.36R
HANOVER        CLEAR     25   6  44 N3        30.36R
TAPPAHANNOCK*  CLEAR     28   1  31 W6        30.34R
QUINTON*       FAIR      27   7  43 NW7       30.35R
CHARLOTTSVILLE CLEAR     25   6  44 CALM      30.32R
GORDONSVILLE*  FAIR      18  13  80 CALM      30.33R
ORANGE*        FAIR      21  14  73 CALM      30.34S
LOUISA*        CLEAR     16  10  79 CALM      30.32R
BUMPASS*       FAIR      26   9  48 NE3       30.33R
FARMVILLE*     CLEAR     22  14  72 CALM      30.33R
CREWE*         FAIR      24  10  54 MISG      30.34R
FORT PICKETT*  FAIR      22  12  65 NE7       30.33R
CHASE CITY*    FAIR      26  13  57 CALM      30.34R
CLARKSVILLE*   FAIR      28  12  50 N3        30.33S
SOUTH HILL*    CLEAR     23  12  62 CALM      30.39R
LAWRENCEVILLE* FAIR      25  12  58 NW3       30.33R
EMPORIA*       CLEAR     25  12  58 NW3       30.37R
$$

VAZ088>098-291100-
SOUTHEAST VIRGINIA

CITY           SKY/WX    TMP DP  RH WIND       PRES   REMARKS
NORFOLK        CLEAR     30   8  39 NW14G23   30.30R WCI  19
VIRGINIA BEACH PTCLDY    32  12  43 NW15      30.29R WCI  22
NORFOLK NAVAL  PTCLDY    32   8  36 NW20G26   30.33R WCI  20
WEST POINT*    CLEAR     29   6  37 NW7       30.36R
SALUDA*        FAIR      28   7  41 NW14G23   30.32R WCI  17
NEWPORT NEWS   CLEAR     30   9  41 NW10G18   30.32R WCI  21
LANGLEY AFB    CLEAR     28   6  38 NW13G21   30.31R WCI  18
FORT EUSTIS    CLEAR     29  12  48 N14       30.31R WCI  18
WILLIAMSBURG*  CLEAR     28  12  50 NW10      30.34R WCI  19
HR EXEC AP*    FAIR      28   9  43 NW7       30.33R
FRANKLIN*      CLEAR     26  13  56 N5        30.35R
WAKEFIELD      CLEAR     27   9  46 N6        30.35R
$$

VAZ020-022-025-037-045-291100-
WEST CENTRAL AND SOUTHWEST VIRGINIA

CITY           SKY/WX    TMP DP  RH WIND       PRES   REMARKS
STAUNTON*      CLEAR     17  10  71 CALM      30.32R
WAYNESBORO*    FAIR      21   4  47 W5        30.28R
HOT SPRINGS VA CLEAR     13   4  69 NW12      30.11R WCI  -1
LYNCHBURG      CLEAR     25   7  46 NW5       30.33R
DANVILLE       CLEAR     27  13  55 CALM      30.35R
SOUTH BOSTON*  FAIR      21  15  76 CALM      30.35R
MARTINSVILLE   CLEAR     22  10  61 N7        30.36R
ROANOKE        CLEAR     25   6  44 NW7       30.34R
BLACKSBURG     CLEAR     20   7  56 W5        30.30R
DUBLIN*        CLEAR     22  10  59 CALM      30.29R
MARION*        CLEAR     21   7  55 W8        30.29R
HILLSVILLE*    CLEAR     20   7  55 NW9       30.24R
RICHLANDS*     FAIR      22   3  45 CALM      30.26R
WISE*          CLEAR     19  10  68 CALM      30.28R
ABINGDON*      CLEAR     22  11  62 CALM      30.30S
$$

MDZ021>025-VAZ099-100-291100-
SOUTHERN MARYLAND AND THE DELMARVA PENINSULA

CITY           SKY/WX    TMP DP  RH WIND       PRES   REMARKS
PATUXENT RIVER CLEAR     28   6  39 NW18      30.31R WCI  15
BAY BRIDGE APT   N/A     28   9  43 NW15G21   30.30R WCI  17
LEONARDTOWN    CLEAR     27   3  36 NW6       30.33R
DOVER          CLEAR     25   8  48 NW10      30.26R WCI  15
GEORGETOWN     CLEAR     26   6  42 NW6       30.26R
EASTON         CLEAR     28  10  47 NW8G16    30.32R
CAMBRIDGE      CLEAR     32   9  37 NW14G22   30.28R WCI  22
SALISBURY      CLEAR     25   7  46 NW8       30.27R
OCEAN CITY     CLEAR     26   8  46 NW12G20   30.26R WCI  16
WALLOPS ISLAND CLEAR     27   5  39 N12       30.29R WCI  17
ACCOMACK*      MOCLDY    30  10  43 N14G20    30.28R WCI  20
$$

NCZ012>017-030>032-291100-
NORTH CENTRAL AND EASTERN NORTH CAROLINA

CITY           SKY/WX    TMP DP  RH WIND       PRES   REMARKS
ROANOKE RAPIDS FAIR      28  14  54 NW3       30.35R
RALEIGH        CLEAR     26  13  57 CALM      30.35R
ELIZABETH CITY CLEAR     27  14  58 NW7       30.32R
AHOSKIE*       CLEAR     25  15  66 CALM      30.36R
EDENTON*       CLEAR     27  17  67 N6        30.33R
CURRITUCK*     CLEAR     29  13  51 W3        30.31R
KILL DEVIL HLS CLEAR     31   8  38 N10G17    30.28R WCI  23
MANTEO         CLEAR     32  11  42 N14G24    30.30R WCI  22
CAPE HATTERAS  CLEAR     32  14  47 N8G21     30.29R
TARBORO*       FAIR      27  17  65 W5        30.37R
GOLDSBORO      CLEAR     29  23  78 NW3       30.34R
WASHINGTON     CLEAR     27  17  63 NW3       30.34R
GREENVILLE     CLEAR     30  18  59 NW3       30.35R
NEW BERN       CLEAR     29  17  61 NW3       30.35R
WILMINGTON     CLEAR     29  20  69 N6        30.35R
$$

VAZ048-291100-
ELSEWHERE

CITY           SKY/WX    TMP DP  RH WIND       PRES   REMARKS
HARRISBURG PA  CLEAR     24  11  57 NW14      30.28R WCI  12
BALTIMORE      CLEAR     23   7  50 W8        30.30R
ANNAPOLIS      CLEAR     27   9  46 W10       30.31R WCI  17
ANDREWS AFB    CLEAR     25   6  45 NW15      30.30R WCI  13
PHILADELPHIA   PTCLDY    26   5  40 NW10      30.26R WCI  16
HENDERSON NC   CLEAR     26  10  52 CALM      30.34R
GREENSBORO     CLEAR     25   9  50 CALM      30.32R
ROCKY MOUNT    CLEAR     28  13  53 NW7       30.36R
$$

VAZ100-291100-
MARINE

STATION/POSITION TIME  TEMP    WIND        PRES    WAVE   SWELL
                       AIR SEA DIR/SP/G            HT/PER HT/PER
                 (UTC) (F)     (DEG/KT/KT) (MB)    (FT/S) (FT/S)
15NM E FENWICK I 0950   30 39              1022.8R   5/ 5
THOMAS POINT MD  1000                        N/A
STINGRAY PT      1000   30 44  330/ 16/ 21   N/A     2/ 3
CHESAPEAKE LGHT  0900   32     330/ 23/ 26 1025.1R
CAPE HENRY BUOY  0928      40                N/A     4/ 5
1ST LANDING BUOY 1000   33     330/ 19/ 23 1025.4R   3/ 4
OFFSHORE WE BUOY 0911      41                N/A     5/ 5   2/ 9
64NM E OF VA BCH 0950   35 54  320/ 23/ 31 1023.4R   6/ 6   2/10
44056 DUCK FRF   0911      42                N/A     5/ 6
CAPE LOOKOUT NC  1000   34     350/ 16/ 18 1026.1R
$$


USA.gov is the U.S. government's official web portal to all federal, state and local government web resources and services.